Weather reports worldwide

Advertisment
Zwiesel, Germany (10796): temperature & dewpoint: 16.01.2019 04:00:00 - 22.01.2019 04:00:00 (CET)Zwiesel, Germany (10796): temperature 5cm & temperature -5cm: 16.01.2019 04:00:00 - 22.01.2019 04:00:00 (CET)Zwiesel, Germany (10796): temperature -20cm & temperature -100cm: 16.01.2019 04:00:00 - 22.01.2019 04:00:00 (CET)Zwiesel, Germany (10796): wind speed & gusts: 16.01.2019 04:00:00 - 22.01.2019 04:00:00 (CET)Zwiesel, Germany (10796): wind direction: 16.01.2019 04:00:00 - 22.01.2019 04:00:00 (CET)Zwiesel, Germany (10796): reduced air pressure: 16.01.2019 04:00:00 - 22.01.2019 04:00:00 (CET)Zwiesel, Germany (10796): visibility: 16.01.2019 04:00:00 - 22.01.2019 04:00:00 (CET)Zwiesel, Germany (10796): sunshine duration: 16.01.2019 04:00:00 - 22.01.2019 04:00:00 (CET)Zwiesel, Germany (10796): precipitation: 16.01.2019 04:00:00 - 22.01.2019 04:00:00 (CET)
Date & Time tt [°C] td [°C] tt 5cm [°C] tt -5cm [°C] tt -20cm [°C] tt -100cm [°C] ff [km/h] ff [kn] fx [km/h] fx [kn] dd ppp [hPa] vv [km] sd [min] rr [mm]
22.01.2019 04:00:00 -13,5 -15,2 -0,6 0,3 0,2 3,1 2 1 4 2 N 1021,7 12 0 0,0
22.01.2019 03:00:00 -13,6 -15,0 -0,6 0,3 0,2 3,1 4 2 8 4 S 1022,5 11 0 0,0
22.01.2019 02:00:00 -14,0 -15,2 -0,6 0,3 0,2 3,1 0 0 6 4 N 1022,9 9 0 0,0
22.01.2019 01:00:00 -13,4 -15,1 -0,6 0,3 0,2 3,1 3 2 6 4 E 1023,6 14 0 0,0
22.01.2019 00:00:00 -13,3 -14,4 -0,6 0,3 0,2 3,1 2 1 6 3 N 1023,9 7 0 0,0
21.01.2019 23:00:00 -12,7 -14,0 -0,7 0,3 0,2 3,1 3 2 6 3 NNW 1023,9 8 0 0,0
21.01.2019 22:00:00 -11,9 -13,0 -0,7 0,3 0,2 3,1 5 3 8 5 N 1023,9 6 0 0,0
21.01.2019 21:00:00 -9,1 -9,9 -0,7 0,3 0,2 3,1 5 3 7 4 NE 1022,9 15 0 0,0
21.01.2019 20:00:00 -9,5 -10,6 -0,7 0,3 0,2 3,1 3 1 5 3 ENE 1023,0 12 0 0,0
21.01.2019 19:00:00 -8,2 -10,0 -0,7 0,3 0,2 3,1 3 2 6 4 ENE 1022,6 13 0 0,0
21.01.2019 18:00:00 -6,5 -9,4 -0,7 0,3 0,2 3,1 4 2 7 4 E 1022,0 16 0 0,0
21.01.2019 17:00:00 -4,2 -9,1 -0,8 0,3 0,2 3,1 2 1 8 5 W 1021,4 17 43 0,0
21.01.2019 16:00:00 -1,6 -8,8 -0,6 0,3 0,2 3,1 6 3 10 6 SW 1020,6 30 60 0,0
21.01.2019 15:00:00 -1,4 -9,6 -0,6 0,3 0,2 3,1 6 3 9 5 SW 1020,7 32 60 0,0
21.01.2019 14:00:00 -1,1 -10,9 -0,6 0,3 0,2 3,1 5 3 6 4 SSW 1021,2 14 60 0,0
21.01.2019 13:00:00 -2,3 -13,0 -0,6 0,3 0,2 3,1 0 0 5 3 N 1022,2 13 60 0,0
21.01.2019 12:00:00 -6,7 -14,2 -0,6 0,3 0,2 3,1 3 2 6 3 SW 1024,2 9 60 0,0
21.01.2019 11:00:00 -9,3 -16,0 -0,6 0,3 0,2 3,1 3 1 3 2 WSW 1025,4 8 60 0,0
21.01.2019 10:00:00 -12,2 -17,4 -0,6 0,3 0,2 3,1 2 1 4 2 WNW 1026,3 5 60 0,0
21.01.2019 09:00:00 -15,9 -18,0 -0,6 0,3 0,2 3,1 2 1 5 3 NNW 1027,5 9 28 0,0
21.01.2019 08:00:00 -15,8 -17,3 -0,6 0,3 0,2 3,1 2 1 4 2 ENE 1026,8 11 0 0,0
21.01.2019 07:00:00 -15,9 -17,5 -0,5 0,3 0,2 3,1 0 0 4 2 N 1026,6 14 0 0,0
21.01.2019 06:00:00 -15,5 -17,1 -0,5 0,3 0,2 3,1 3 2 5 3 NNE 1026,3 12 0 0,0
21.01.2019 05:00:00 -15,2 -16,4 -0,5 0,3 0,2 3,1 2 1 4 2 W 1026,2 12 0 0,0
21.01.2019 04:00:00 -14,6 -15,9 -0,3 0,3 0,2 3,1 3 2 5 3 SE 1026,1 17 0 0,0
21.01.2019 03:00:00 -14,0 -15,2 -0,4 0,3 0,2 3,1 2 1 5 3 ENE 1026,0 12 0 0,0
21.01.2019 02:00:00 -13,4 -14,6 -0,3 0,3 0,2 3,1 3 2 5 3 SSE 1025,7 14 0 0,0
21.01.2019 01:00:00 -13,1 -14,5 -0,3 0,3 0,2 3,1 3 1 6 3 ESE 1025,4 14 0 0,0
21.01.2019 00:00:00 -12,4 -13,6 -0,3 0,3 0,2 3,1 3 1 9 5 E 1025,1 9 0 0,0
20.01.2019 23:00:00 -11,7 -12,9 -0,3 0,3 0,2 3,1 3 2 6 3 E 1024,4 10 0 0,0
20.01.2019 22:00:00 -10,5 -11,1 -0,3 0,4 0,2 3,1 3 1 5 3 SE 1023,4 7 0 0,0
20.01.2019 21:00:00 -9,5 -10,8 -0,1 0,4 0,2 3,1 2 1 6 4 N 1022,6 10 0 0,0
20.01.2019 20:00:00 -7,4 -9,8 -0,1 0,4 0,2 3,1 5 3 13 7 ENE 1021,5 17 0 0,0
20.01.2019 19:00:00 -6,3 -8,7 0,0 0,4 0,2 3,1 8 4 13 7 NE 1020,5 18 0 0,0
20.01.2019 18:00:00 -5,8 -8,7 0,0 0,4 0,2 3,1 9 5 15 8 NNE 1020,0 20 0 0,0
20.01.2019 17:00:00 -4,3 -8,2 0,0 0,4 0,2 3,1 8 4 16 9 NE 1018,6 23 36 0,0
20.01.2019 16:00:00 -2,4 -9,0 0,1 0,4 0,2 3,1 2 1 10 6 S 1017,3 22 60 0,0
20.01.2019 15:00:00 -2,3 -9,3 0,1 0,4 0,2 3,1 7 4 10 6 WSW 1017,1 16 60 0,0
20.01.2019 14:00:00 -2,7 -10,0 0,1 0,4 0,2 3,1 6 3 10 5 WSW 1017,1 23 60 0,0
20.01.2019 13:00:00 -3,6 -10,6 0,1 0,4 0,2 3,1 6 3 8 4 SSW 1017,6 17 60 0,0
20.01.2019 12:00:00 -5,0 -12,9 0,1 0,4 0,2 3,1 4 2 5 3 SW 1018,0 18 60 0,0
20.01.2019 11:00:00 -10,1 -15,5 0,1 0,4 0,2 3,1 3 2 4 2 W 1019,8 9 60 0,0
20.01.2019 10:00:00 -11,1 -15,1 0,1 0,4 0,2 3,1 0 0 3 2 N 1020,0 25 60 0,0
20.01.2019 09:00:00 -15,5 -17,7 0,0 0,4 0,2 3,1 2 1 4 2 SSW 1020,8 19 26 0,0
20.01.2019 08:00:00 -15,7 -17,2 0,0 0,4 0,2 3,1 2 1 4 2 N 1020,4 34 0 0,0
20.01.2019 07:00:00 -15,3 -16,6 0,0 0,4 0,2 3,1 0 0 3 2 N 1020,0 47 0 0,0
20.01.2019 06:00:00 -14,9 -16,0 0,0 0,4 0,2 3,1 3 1 4 2 N 1019,8 29 0 0,0
20.01.2019 05:00:00 -14,2 -15,4 0,1 0,4 0,2 3,1 0 0 3 1 N 1019,4 33 0 0,0
20.01.2019 04:00:00 -13,6 -14,5 0,1 0,4 0,2 3,1 0 0 4 2 N 1019,6 36 0 0,0
20.01.2019 03:00:00 -13,0 -13,7 0,1 0,4 0,2 3,1 2 1 5 3 NNW 1019,6 22 0 0,0
20.01.2019 02:00:00 -12,8 -13,9 0,1 0,4 0,2 3,1 2 1 4 2 ESE 1019,5 28 0 0,0
20.01.2019 01:00:00 -11,9 -12,8 0,0 0,4 0,2 3,1 2 1 6 4 NW 1019,2 18 0 0,0
20.01.2019 00:00:00 -11,4 -12,9 0,0 0,4 0,2 3,1 4 2 5 3 ESE 1019,3 32 0 0,0
19.01.2019 23:00:00 -10,3 -11,7 0,0 0,4 0,2 3,1 3 2 9 5 ENE 1019,2 32 0 0,0
19.01.2019 22:00:00 -9,2 -11,6 0,1 0,4 0,2 3,1 4 2 18 10 E 1018,7 28 0 0,0
19.01.2019 21:00:00 -6,5 -10,4 0,1 0,4 0,2 3,1 9 5 16 8 NNE 1017,9 33 0 0,0
19.01.2019 20:00:00 -5,6 -10,3 0,1 0,4 0,2 3,1 11 6 15 8 NE 1017,9 32 0 0,0
19.01.2019 19:00:00 -4,6 -10,4 0,0 0,4 0,2 3,1 9 5 16 9 ENE 1017,9 33 0 0,0
19.01.2019 18:00:00 -4,1 -10,1 0,1 0,4 0,2 3,1 10 6 17 9 ENE 1017,8 31 0 0,0
19.01.2019 17:00:00 -2,5 -12,5 0,1 0,4 0,2 3,1 6 3 18 10 E 1017,4 70 34 0,0
19.01.2019 16:00:00 -1,1 -14,0 0,1 0,4 0,2 3,1 11 6 19 10 E 1017,1 24 60 0,0
19.01.2019 15:00:00 -0,2 -14,3 0,1 0,4 0,2 3,1 11 6 27 15 E 1017,1 17 60 0,0
19.01.2019 14:00:00 -0,1 -15,1 0,1 0,4 0,2 3,1 18 10 35 19 E 1017,5 9 60 0,0
19.01.2019 13:00:00 0,0 -15,6 0,1 0,4 0,2 3,1 16 8 28 15 E 1018,1 9 60 0,0
19.01.2019 12:00:00 -0,6 -15,5 0,1 0,4 0,2 3,1 12 6 23 13 E 1019,0 12 60 0,0
19.01.2019 11:00:00 -6,6 -12,8 0,1 0,4 0,2 3,1 3 2 5 3 SSW 1021,3 15 60 0,0
19.01.2019 10:00:00 -10,1 -14,9 0,1 0,4 0,2 3,1 3 1 6 3 W 1022,6 17 60 0,0
19.01.2019 09:00:00 -11,9 -13,8 0,1 0,4 0,2 3,1 3 2 6 4 S 1023,2 32 25 0,0
19.01.2019 08:00:00 -13,0 -15,0 0,1 0,4 0,2 3,1 4 2 8 5 E 1023,5 34 0 0,0
19.01.2019 07:00:00 -11,1 -12,3 0,0 0,4 0,2 3,1 6 3 10 5 N 1022,9 45 0 0,0
19.01.2019 06:00:00 -11,9 -13,1 0,1 0,4 0,2 3,1 3 2 6 3 NW 1023,3 47 0 0,0
19.01.2019 05:00:00 -12,0 -13,3 0,0 0,4 0,2 3,1 4 2 14 8 NE 1023,6 57 0 0,0
19.01.2019 04:00:00 -10,7 -11,9 0,1 0,4 0,2 3,1 5 3 14 7 NNE 1023,4 56 0 0,0
19.01.2019 03:00:00 -10,7 -11,9 0,1 0,4 0,2 3,1 3 2 10 6 NNE 1024,2 35 0 0,0
19.01.2019 02:00:00 -10,7 -11,5 0,0 0,4 0,2 3,1 3 1 9 5 NE 1024,6 36 0 0,0
19.01.2019 01:00:00 -10,0 -11,2 0,0 0,4 0,2 3,1 6 3 12 7 NE 1024,6 35 0 0,0
19.01.2019 00:00:00 -9,9 -11,1 0,0 0,4 0,2 3,1 4 2 11 6 ESE 1024,9 23 0 0,0
18.01.2019 23:00:00 -7,9 -9,1 0,1 0,4 0,2 3,1 3 2 17 9 N 1024,3 36 0 0,0
18.01.2019 22:00:00 -8,3 -9,1 0,1 0,4 0,2 3,1 4 2 6 3 NNE 1024,7 23 0 0,0
18.01.2019 21:00:00 -7,9 -9,0 0,0 0,4 0,2 3,1 5 3 7 4 E 1024,6 12 0 0,0
18.01.2019 20:00:00 -7,2 -8,0 0,0 0,4 0,2 3,1 3 2 9 5 NW 1024,5 18 0 0,0
18.01.2019 19:00:00 -5,2 -6,8 0,0 0,4 0,2 3,1 3 2 7 4 E 1023,5 14 0 0,0
18.01.2019 18:00:00 -4,9 -7,8 0,0 0,4 0,2 3,1 4 2 6 3 ESE 1023,1 17 0 0,0
18.01.2019 17:00:00 -2,8 -7,4 0,1 0,4 0,2 3,1 3 2 10 5 ENE 1022,0 59 33 0,0
18.01.2019 16:00:00 -1,8 -7,1 0,1 0,4 0,2 3,1 7 4 18 10 WSW 1021,4 67 6 0,0
18.01.2019 15:00:00 -0,3 -8,7 0,1 0,4 0,2 3,1 3 2 11 6 WNW 1020,5 45 34 0,0
18.01.2019 14:00:00 -0,7 -8,6 0,1 0,4 0,2 3,1 9 5 21 11 NNW 1020,4 23 30 0,0
18.01.2019 13:00:00 -1,5 -6,2 0,1 0,4 0,2 3,1 14 8 27 15 W 1020,7 38 0 0,0
18.01.2019 12:00:00 -1,4 -5,8 0,1 0,4 0,2 3,1 16 9 28 15 W 1020,5 20 0 0,0
18.01.2019 11:00:00 -1,6 -4,9 0,1 0,4 0,2 3,1 14 8 26 14 W 1020,3 20 0 0,1
18.01.2019 10:00:00 -1,5 -5,1 0,1 0,4 0,2 3,1 16 8 36 19 W 1019,4 19 0 0,1
18.01.2019 09:00:00 -1,5 -5,0 0,1 0,4 0,2 3,1 21 11 38 21 W 1018,1 29 0 0,6
18.01.2019 08:00:00 -1,4 -5,1 0,1 0,4 0,2 3,1 20 11 36 20 WNW 1017,0 14 0 0,0
18.01.2019 07:00:00 -1,4 -4,2 0,1 0,4 0,2 3,1 14 8 27 14 W 1015,8 22 0 0,1
18.01.2019 06:00:00 -1,2 -4,6 0,1 0,4 0,2 3,1 15 8 30 16 W 1014,6 37 0 0,0
18.01.2019 05:00:00 -0,9 -4,6 0,1 0,4 0,2 3,1 17 9 27 15 W 1014,1 57 0 0,0
18.01.2019 04:00:00 -0,8 -4,3 0,0 0,4 0,2 3,1 13 7 31 17 WNW 1013,7 70 0 0,0
18.01.2019 03:00:00 -0,4 -4,1 0,1 0,4 0,2 3,1 14 7 37 20 WNW 1013,3 14 0 0,0
18.01.2019 02:00:00 0,0 -3,1 0,1 0,4 0,2 3,1 27 14 51 28 WNW 1012,8 41 0 0,1
18.01.2019 01:00:00 0,6 -2,0 0,1 0,4 0,2 3,1 11 6 26 14 WSW 1011,7 43 0 0,0
18.01.2019 00:00:00 0,5 -1,4 0,1 0,4 0,2 3,1 11 6 32 17 W 1011,6 67 0 0,1
17.01.2019 23:00:00 1,0 -1,2 0,1 0,4 0,2 3,1 23 13 41 22 W 1010,6 18 0 0,4
17.01.2019 22:00:00 2,5 -0,5 0,1 0,4 0,2 3,1 14 8 29 16 WSW 1009,3 44 0 0,7
17.01.2019 21:00:00 2,8 -0,8 0,1 0,4 0,2 3,1 15 8 39 21 W 1009,0 60 0 0,0
17.01.2019 20:00:00 2,6 -0,2 0,1 0,4 0,2 3,1 14 7 29 16 SW 1009,0 70 0 0,1
17.01.2019 19:00:00 2,4 0,2 0,1 0,4 0,2 3,1 13 7 35 19 SW 1008,7 11 0 0,0
17.01.2019 18:00:00 2,5 0,2 0,1 0,4 0,2 3,1 10 6 26 14 S 1008,0 27 0 0,0
17.01.2019 17:00:00 3,5 0,2 0,1 0,4 0,2 3,1 11 6 31 17 SSW 1007,5 32 0 0,0
17.01.2019 16:00:00 3,6 0,2 0,1 0,4 0,2 3,1 5 3 16 9 S 1007,1 19 0 0,0
17.01.2019 15:00:00 3,6 -0,5 0,1 0,4 0,2 3,1 3 2 18 10 SW 1006,6 25 0 0,0
17.01.2019 14:00:00 3,7 -0,7 0,1 0,3 0,2 3,1 9 5 16 8 SW 1006,7 25 0 0,0
17.01.2019 13:00:00 3,2 -0,6 0,1 0,4 0,2 3,1 9 5 18 10 SSW 1007,6 26 0 0,0
17.01.2019 12:00:00 3,2 -0,5 0,1 0,4 0,2 3,1 9 5 22 12 SSW 1008,2 16 0 0,0
17.01.2019 11:00:00 2,5 -1,0 0,1 0,3 0,2 3,1 3 2 22 12 W 1009,0 29 1 0,0
17.01.2019 10:00:00 3,4 -3,0 0,1 0,3 0,2 3,1 3 1 15 8 WSW 1008,9 30 50 0,0
17.01.2019 09:00:00 1,0 -2,1 0,1 0,3 0,2 3,1 6 4 11 6 ESE 1009,5 26 0 0,0
17.01.2019 08:00:00 0,7 -1,6 0,1 0,4 0,2 3,1 5 3 18 10 ESE 1009,4 29 0 0,0
17.01.2019 07:00:00 -0,3 -2,3 0,1 0,4 0,2 3,1 8 4 16 8 SE 1009,8 16 0 0,0
17.01.2019 06:00:00 -5,4 -6,2 0,1 0,4 0,2 3,1 4 2 10 5 ENE 1011,7 16 0 0,0
17.01.2019 05:00:00 -6,4 -6,8 0,0 0,4 0,2 3,1 2 1 6 3 NNW 1012,0 7 0 0,0
17.01.2019 04:00:00 -6,1 -6,8 0,0 0,4 0,2 3,1 3 1 5 3 NNE 1012,1 6 0 0,0
17.01.2019 03:00:00 -5,5 -5,7 0,0 0,3 0,2 3,1 3 1 4 2 NNW 1012,2 0,5 0 0,0
17.01.2019 02:00:00 -4,8 -4,8 0,0 0,3 0,2 3,1 2 1 5 3 WNW 1012,2 0,2 0 0,0
17.01.2019 01:00:00 -4,7 -5,2 0,0 0,3 0,2 3,1 3 2 8 5 N 1012,7 4,6 0 0,0
17.01.2019 00:00:00 -4,1 -4,4 0,1 0,3 0,2 3,1 0 0 6 3 N 1012,9 1,9 0 0,0
16.01.2019 23:00:00 -3,7 -4,2 0,1 0,3 0,2 3,1 2 1 4 2 NNE 1013,3 3,3 0 0,0
16.01.2019 22:00:00 -2,3 -2,5 0,1 0,3 0,2 3,1 0 0 4 2 N 1013,3 13 0 0,0
16.01.2019 21:00:00 -2,1 -2,3 0,1 0,3 0,2 3,1 0 0 5 3 N 1013,3 8 0 0,0
16.01.2019 20:00:00 -2,3 -2,8 0,1 0,3 0,2 3,1 2 1 6 3 N 1013,8 6 0 0,0
16.01.2019 19:00:00 -1,4 -2,5 0,1 0,3 0,2 3,1 3 1 9 5 SSW 1013,9 10 0 0,0
16.01.2019 18:00:00 -0,7 -2,2 0,1 0,3 0,2 3,1 3 2 8 4 ENE 1013,9 17 0 0,0
16.01.2019 17:00:00 0,3 -2,0 0,1 0,3 0,2 3,1 3 2 7 4 ESE 1014,2 21 15 0,0
16.01.2019 16:00:00 1,9 -2,0 0,1 0,3 0,2 3,1 4 2 17 9 SSE 1013,8 22 10 0,0
16.01.2019 15:00:00 1,9 -2,3 0,1 0,3 0,2 3,1 9 5 17 9 SSE 1014,4 29 13 0,0
16.01.2019 14:00:00 2,2 -3,0 0,1 0,3 0,2 3,1 6 4 12 7 SSE 1015,0 30 28 0,0
16.01.2019 13:00:00 1,6 -3,1 0,1 0,3 0,2 3,1 10 5 19 10 WSW 1015,9 33 10 0,0
16.01.2019 12:00:00 1,6 -2,8 0,1 0,3 0,2 3,1 8 5 19 10 SSW 1016,7 28 0 0,0
16.01.2019 11:00:00 1,4 -2,3 0,1 0,3 0,2 3,1 8 5 21 11 SSW 1017,4 29 0 0,0
16.01.2019 10:00:00 1,0 -1,8 0,1 0,3 0,2 3,1 6 3 15 8 SSW 1017,8 22 0 0,0
16.01.2019 09:00:00 0,8 -1,7 0,1 0,3 0,2 3,1 6 3 11 6 SSW 1017,9 19 0 0,0
16.01.2019 08:00:00 0,7 -1,7 0,1 0,3 0,2 3,1 11 6 21 11 SW 1017,8 26 0 0,0
16.01.2019 07:00:00 0,9 -1,6 0,1 0,3 0,2 3,1 8 4 16 9 SW 1017,7 34 0 0,0
16.01.2019 06:00:00 0,8 -1,4 0,1 0,3 0,2 3,1 8 4 26 14 SSW 1017,7 36 0 0,0
16.01.2019 05:00:00 1,2 -1,9 0,1 0,3 0,2 3,1 10 5 29 16 WSW 1018,0 44 0 0,0
16.01.2019 04:00:00 1,3 -1,7 0,1 0,3 0,2 3,1 14 8 26 14 WSW 1018,2 40 0 0,0

tt = temperature
td = dewpoint
tt 5cm = temperature 5cm
tt -5cm = temperature -5cm
tt -20cm = temperature -20cm
tt -100cm = temperature -100cm
ff = wind speed
fx = gusts
dd = wind direction
ppp = reduced air pressure
vv = visibility
sd = sunshine duration
rr = precipitation

Next stations